Location: Unspecified
(0.0000°N, 0.0000°E)
Time: 11:03:38
(UTC+00:00)

Explorer 11/Cluster Stage 4 - Pass Details

Date: 04 November 2024
Orbit: 464 x 1202 km, 28.8° (Epoch: 06 December)

Event Time Altitude Azimuth Distance (km) Brightness Sun altitude
Exits shadow 04:00:12 63° 112° (ESE) 591 6.1 -24.8°
Drops below altitude 10° 04:03:34 10° 67° (ENE) 1,669 8.9 -24.0°
Sets 04:05:38 0° 64° (ENE) 2,504 9.9 -23.5°
